• In Germany
  • List of Countries
  • For 7 days
  • Water Temperature
  • Satellite Maps
  • Weather Map
  • Weather Widgets
  • user-avatar
    Login

    Hourly Weather Naftalan

    Today, 20 October, Friday

    Time Temperature Precipitation Wind Pressure Humidity
    00:00 +19°C° 0 mm 1 mps 767 mmHg 82%
    01:00 +18°C° 0 mm 2 mps 767 mmHg 82%
    02:00 +17°C° 0 mm 2 mps 767 mmHg 82%
    03:00 +16°C° 0 mm 2 mps 766 mmHg 82%
    04:00 +16°C° 0 mm 2 mps 766 mmHg 81%
    05:00 +16°C° 0 mm 2 mps 766 mmHg 79%
    06:00 +16°C° 0 mm 2 mps 766 mmHg 78%
    07:00 +17°C° 0 mm 2 mps 766 mmHg 72%
    08:00 +18°C° 0 mm 2 mps 766 mmHg 66%
    09:00 +20°C° 0 mm 2 mps 767 mmHg 57%
    10:00 +21°C° 0 mm 2 mps 766 mmHg 53%
    11:00 +23°C° 0 mm 1 mps 766 mmHg 49%
    12:00 +24°C° 0 mm 1 mps 766 mmHg 45%
    13:00 +24°C° 0 mm 1 mps 766 mmHg 45%
    14:00 +24°C° 0 mm 1 mps 766 mmHg 44%
    15:00 +25°C° 0 mm 2 mps 765 mmHg 42%
    16:00 +23°C° 0 mm 2 mps 766 mmHg 51%
    17:00 +21°C° 0 mm 2 mps 766 mmHg 59%
    18:00 +20°C° 0 mm 3 mps 766 mmHg 67%
    19:00 +19°C° 0 mm 2 mps 766 mmHg 71%
    20:00 +19°C° 0 mm 2 mps 766 mmHg 75%
    21:00 +18°C° 0 mm 2 mps 766 mmHg 79%
    22:00 +18°C° 0 mm 2 mps 766 mmHg 80%
    23:00 +18°C° 0 mm 2 mps 766 mmHg 81%

    Tomorrow, 21 October, Saturday

    Time Temperature Precipitation Wind Pressure Humidity
    00:00 +17°C° 0 mm 2 mps 766 mmHg 81%
    01:00 +17°C° 0 mm 2 mps 766 mmHg 82%
    02:00 +17°C° 0 mm 2 mps 766 mmHg 82%
    03:00 +17°C° 0 mm 2 mps 766 mmHg 82%
    04:00 +18°C° 0 mm 1 mps 766 mmHg 83%
    05:00 +16°C° 0 mm 1 mps 766 mmHg 83%
    06:00 +16°C° 0 mm 1 mps 766 mmHg 84%
    07:00 +18°C° 0 mm 2 mps 766 mmHg 78%
    08:00 +19°C° 0 mm 2 mps 766 mmHg 73%
    09:00 +21°C° 0 mm 2 mps 766 mmHg 67%
    10:00 +23°C° 0 mm 2 mps 766 mmHg 63%
    11:00 +23°C° 0 mm 2 mps 765 mmHg 59%
    12:00 +24°C° 0 mm 2 mps 765 mmHg 55%
    13:00 +24°C° 0 mm 3 mps 765 mmHg 55%
    14:00 +25°C° 0 mm 3 mps 764 mmHg 56%
    15:00 +25°C° 0 mm 4 mps 764 mmHg 56%
    16:00 +22°C° 0 mm 4 mps 764 mmHg 63%
    17:00 +21°C° 0 mm 4 mps 764 mmHg 70%
    18:00 +20°C° 0 mm 4 mps 764 mmHg 77%
    19:00 +19°C° 0 mm 4 mps 764 mmHg 79%
    20:00 +19°C° 0 mm 4 mps 764 mmHg 80%
    21:00 +19°C° 0 mm 4 mps 764 mmHg 81%
    22:00 +18°C° 0 mm 4 mps 764 mmHg 82%
    23:00 +18°C° 0 mm 3 mps 763 mmHg 82%

    Day after tomorrow, 22 October, Sunday

    Time Temperature Precipitation Wind Pressure Humidity
    00:00 +18°C° 0 mm 3 mps 763 mmHg 83%
    01:00 +18°C° 0 mm 3 mps 763 mmHg 83%
    02:00 +18°C° 0 mm 2 mps 763 mmHg 84%
    03:00 +17°C° 0 mm 2 mps 763 mmHg 84%
    04:00 +17°C° 0 mm 2 mps 763 mmHg 84%
    05:00 +17°C° 0 mm 2 mps 762 mmHg 83%
    06:00 +17°C° 0 mm 2 mps 762 mmHg 83%
    07:00 +18°C° 0 mm 2 mps 762 mmHg 77%
    08:00 +19°C° 0 mm 2 mps 762 mmHg 71%
    09:00 +21°C° 0 mm 3 mps 762 mmHg 65%
    10:00 +22°C° 0 mm 3 mps 762 mmHg 60%
    11:00 +24°C° 0 mm 3 mps 761 mmHg 56%
    12:00 +25°C° 0 mm 3 mps 761 mmHg 51%
    13:00 +25°C° 0 mm 3 mps 760 mmHg 51%
    14:00 +25°C° 0 mm 3 mps 760 mmHg 50%
    15:00 +25°C° 0 mm 3 mps 759 mmHg 49%
    16:00 +24°C° 0 mm 3 mps 759 mmHg 59%
    17:00 +22°C° 0 mm 4 mps 759 mmHg 68%
    18:00 +20°C° 0 mm 4 mps 759 mmHg 77%
    19:00 +20°C° 0 mm 4 mps 759 mmHg 80%
    20:00 +19°C° 0 mm 3 mps 760 mmHg 84%
    21:00 +19°C° 0 mm 3 mps 760 mmHg 87%
    22:00 +19°C° 0 mm 3 mps 760 mmHg 80%
    23:00 +18°C° 0 mm 3 mps 759 mmHg 73%

    23 October, Monday

    Time Temperature Precipitation Wind Pressure Humidity
    00:00 +18°C° 0 mm 4 mps 759 mmHg 66%
    01:00 +18°C° 0 mm 4 mps 759 mmHg 56%
    02:00 +17°C° 0 mm 5 mps 759 mmHg 46%
    03:00 +17°C° 0 mm 6 mps 759 mmHg 36%
    04:00 +16°C° 0 mm 7 mps 760 mmHg 35%
    05:00 +16°C° 0 mm 8 mps 760 mmHg 34%
    06:00 +16°C° 0 mm 9 mps 761 mmHg 32%
    07:00 +18°C° 0 mm 8 mps 762 mmHg 31%
    08:00 +20°C° 0 mm 8 mps 762 mmHg 30%
    09:00 +22°C° 0 mm 8 mps 763 mmHg 29%
    10:00 +23°C° 0 mm 8 mps 763 mmHg 30%
    11:00 +23°C° 0 mm 7 mps 764 mmHg 30%
    12:00 +24°C° 0 mm 7 mps 764 mmHg 30%
    13:00 +23°C° 0 mm 7 mps 764 mmHg 38%
    14:00 +23°C° 0 mm 8 mps 765 mmHg 45%
    15:00 +22°C° 0 mm 8 mps 765 mmHg 53%
    16:00 +20°C° 0 mm 8 mps 765 mmHg 59%
    17:00 +18°C° 0 mm 7 mps 766 mmHg 65%
    18:00 +17°C° 0 mm 7 mps 767 mmHg 72%
    19:00 +17°C° 0 mm 7 mps 767 mmHg 73%
    20:00 +17°C° 0 mm 6 mps 767 mmHg 74%
    21:00 +16°C° 0 mm 6 mps 767 mmHg 76%
    22:00 +16°C° 0.1 mm 6 mps 767 mmHg 76%
    23:00 +16°C° 0.1 mm 6 mps 767 mmHg 77%

    24 October, Tuesday

    Time Temperature Precipitation Wind Pressure Humidity
    00:00 +16°C° 0.1 mm 6 mps 767 mmHg 77%
    01:00 +16°C° 0.1 mm 6 mps 766 mmHg 78%
    02:00 +16°C° 0.1 mm 6 mps 766 mmHg 78%
    03:00 +16°C° 0.1 mm 6 mps 766 mmHg 79%
    04:00 +16°C° 0.1 mm 5 mps 766 mmHg 79%
    05:00 +16°C° 0.1 mm 5 mps 766 mmHg 80%
    06:00 +16°C° 0.1 mm 5 mps 766 mmHg 80%
    07:00 +16°C° 0.2 mm 5 mps 766 mmHg 80%
    08:00 +17°C° 0.2 mm 4 mps 767 mmHg 79%
    09:00 +18°C° 0.2 mm 4 mps 767 mmHg 78%
    10:00 +18°C° 0.1 mm 4 mps 767 mmHg 78%
    11:00 +18°C° 0.1 mm 3 mps 766 mmHg 77%
    12:00 +18°C° 0.1 mm 3 mps 766 mmHg 77%
    13:00 +18°C° 0 mm 3 mps 766 mmHg 76%
    14:00 +19°C° 0 mm 2 mps 766 mmHg 75%
    15:00 +19°C° 0 mm 2 mps 766 mmHg 74%
    16:00 +18°C° 0 mm 2 mps 766 mmHg 76%
    17:00 +18°C° 0 mm 3 mps 767 mmHg 79%
    18:00 +18°C° 0 mm 3 mps 767 mmHg 81%
    19:00 +18°C° 0 mm 3 mps 767 mmHg 81%
    20:00 +18°C° 0 mm 3 mps 768 mmHg 81%
    21:00 +17°C° 0 mm 3 mps 768 mmHg 81%
    22:00 +17°C° 0 mm 3 mps 768 mmHg 81%
    23:00 +17°C° 0 mm 3 mps 768 mmHg 81%

    25 October, Wednesday

    Time Temperature Precipitation Wind Pressure Humidity
    00:00 +17°C° 0 mm 3 mps 768 mmHg 81%
    01:00 +17°C° 0 mm 3 mps 768 mmHg 81%
    02:00 +17°C° 0 mm 4 mps 768 mmHg 81%
    03:00 +17°C° 0 mm 4 mps 768 mmHg 81%
    04:00 +17°C° 0 mm 3 mps 768 mmHg 81%
    05:00 +17°C° 0 mm 3 mps 768 mmHg 81%
    06:00 +17°C° 0 mm 3 mps 769 mmHg 81%
    07:00 +17°C° 0 mm 3 mps 769 mmHg 78%
    08:00 +18°C° 0 mm 2 mps 769 mmHg 75%
    09:00 +19°C° 0 mm 2 mps 769 mmHg 72%
    10:00 +19°C° 0 mm 3 mps 769 mmHg 70%
    11:00 +20°C° 0 mm 3 mps 769 mmHg 68%
    12:00 +20°C° 0 mm 3 mps 769 mmHg 66%
    13:00 +20°C° 0 mm 3 mps 768 mmHg 66%
    14:00 +21°C° 0 mm 4 mps 768 mmHg 66%
    15:00 +21°C° 0 mm 4 mps 768 mmHg 65%
    16:00 +20°C° 0 mm 4 mps 769 mmHg 69%
    17:00 +19°C° 0 mm 4 mps 769 mmHg 73%
    18:00 +18°C° 0 mm 4 mps 769 mmHg 77%
    19:00 +18°C° 0 mm 4 mps 769 mmHg 77%
    20:00 +18°C° 0 mm 4 mps 770 mmHg 77%
    21:00 +17°C° 0 mm 4 mps 770 mmHg 76%
    22:00 +17°C° 0 mm 4 mps 770 mmHg 76%
    23:00 +17°C° 0 mm 4 mps 770 mmHg 75%
    Show more